Hourly Data Report for October 14, 2014

All times are specified in Local Standard Time (LST). Add 1 hour to adjust for Daylight Saving Time where and when it is observed.

HALL BEACH A
NUNAVUT

68°46'33.000" N
81°14'33.000" W
9.10 m
2402354
71293
YUX

Download Data

Hourly Data (October 2014)
Hourly Data Report for October 14, 2014
Temp Definition
°C
Dew Point Temp Definition
°C
Rel Hum Definition
%
Wind Dir Definition
10's deg

Wind Spd Definition
km/h
Visibility Definition
km
Stn Press Definition
kPa
Hmdx Definition


Wind Chill Definition


Weather Definition


TIME
00:00 Legend Double Dagger -1.4 -2.0 96 9 18 16.1 100.59   -7 LegendNANA
01:00 Legend Double Dagger -1.6 -2.0 97 9 22 16.1 100.60   -8 Snow
02:00 Legend Double Dagger -2.0 -2.6 96 8 21 16.1 100.61   -8 LegendNANA
03:00 Legend Double Dagger -1.7 -2.3 96 9 18 16.1 100.62   -7 Snow
04:00 Legend Double Dagger -1.7 -2.3 96 8 18 16.1 100.62   -7 Snow
05:00 Legend Double Dagger -1.6 -2.0 97 5 15 16.1 100.61   -6 LegendNANA
06:00 Legend Double Dagger -1.5 -1.9 97 8 11 16.1 100.62   -5 LegendNANA
07:00 Legend Double Dagger -1.4 -1.8 97 8 15 4.8 100.62   -6 Snow
08:00 Legend Double Dagger -1.9 -2.3 97 9 21 4.8 100.62   -8 Snow
09:00 Legend Double Dagger -1.8 -2.2 97 9 18 16.1 100.62   -7 LegendNANA
10:00 Legend Double Dagger -1.4 -2.2 94 8 17 16.1 100.61   -7 LegendNANA
11:00 Legend Double Dagger -1.4 -1.8 97 8 15 14.5 100.60   -6 LegendNANA
12:00 Legend Double Dagger -1.3 -1.6 98 7 17 16.1 100.60   -6 Snow
13:00 Legend Double Dagger -1.4 -1.8 97 9 17 2.4 100.60   -7 Snow
14:00 Legend Double Dagger -1.8 -2.1 98 11 21 6.4 100.64   -8 Fog
15:00 Legend Double Dagger -2.2 -2.3 99 9 22 2.0 100.65   -8 Fog
16:00 Legend Double Dagger -2.1 -2.2 99 9 22 16.1 100.65   -8 LegendNANA
17:00 Legend Double Dagger -2.0 -2.4 97 9 18 16.1 100.67   -7 LegendNANA
18:00 Legend Double Dagger -2.1 -2.5 97 8 21 14.5 100.68   -8 LegendNANA
19:00 Legend Double Dagger -2.3 -3.0 95 7 22 16.1 100.70   -8 LegendNANA
20:00 Legend Double Dagger -2.4 -2.7 98 8 18 16.1 100.70   -8 LegendNANA
21:00 Legend Double Dagger -2.1 -3.1 93 7 17 16.1 100.69   -7 LegendNANA
22:00 Legend Double Dagger -2.6 -3.2 96 8 13 2.4 100.69   -7 Snow
23:00 Legend Double Dagger -2.3 -4.2 87 7 22 16.1 100.69   -8 LegendNANA

Notes on Data Quality.

Legend

  • E = Estimated
  • M = Missing
  • NA = Not Available
  • ‡ = Partner data that is not subject to review by the National Climate Archives
Date modified: